Weather History for KMQE - January, 2013

Change the Weather History Date:

Friday, January 4, 2013

  Actual Average (KBOS) Record (KBOS)
Temperature  
Mean Temperature 28 °F 30 °F  
Max Temperature 36 °F 36 °F 64 °F (1950)
Min Temperature 19 °F 23 °F -4 °F (1981)
Degree Days  
Heating Degree Days 38 35  
Month to date heating degree days 140  
Since 1 July heating degree days 2134  
Cooling Degree Days 0 0  
Month to date cooling degree days 0  
Year to date cooling degree days 0  
Moisture  
Dew Point 17 °F    
Average Humidity 64    
Maximum Humidity 78    
Minimum Humidity 50    
Precipitation  
Precipitation 0.00 in 0.11 in 1.57 in (1982)
Month to date precipitation 0.44  
Year to date precipitation 0.44  
Sea Level Pressure  
Sea Level Pressure 29.91 in    
Wind  
Wind Speed 14 mph (WSW)    
Max Wind Speed 23 mph    
Max Gust Speed 34 mph    
T = Trace of Precipitation, MM = Missing Value Source: NWS Daily Summary

Daily Weather History Graph

Daily Weather History Graph

Search for Another Location

Airport or City:

Trip Planner

Search our weather history database for the weather conditions in past years. The results will help you decide how hot, cold, wet, or windy it might be!

Date:

Astronomy

Jan. 04, 2013 Rise Set
Actual Time 7:13 AM EST 4:26 PM EST
Civil Twilight 6:41 AM EST 4:57 PM EST
Nautical Twilight 6:06 AM EST 5:32 PM EST
Astronomical Twilight 5:32 AM EST 6:06 PM EST
Moon No Moon Rise 10:45 AM EST (1/4)
Length of Visible Light 10h 15m
Length of Day
9h 12m
Waning Gibbous, 55% of the Moon is Illuminated
Jan 4
Waning Gibbous
Jan 4
Last Quarter
Jan 11
New
Jan 18
First Quarter
Jan 26
Full

Hourly Weather History & Observations

Time (EST) Temp. Windchill Dew Point Humidity Pressure Visibility Wind Dir Wind Speed Gust Speed Precip Events Conditions
12:54 AM 19.9 °F 7.3 °F 9.0 °F 62% 29.99 in - SW 12.7 mph - N/A   Unknown
1:54 AM 19.9 °F 7.3 °F 10.0 °F 65% 29.99 in - WSW 12.7 mph - N/A   Unknown
2:54 AM 21.0 °F 8.1 °F 10.9 °F 65% 29.98 in - WSW 13.8 mph - N/A   Unknown
3:54 AM 19.9 °F 6.7 °F 12.0 °F 71% 29.96 in - West 13.8 mph - N/A   Unknown
4:54 AM 21.0 °F 8.1 °F 12.0 °F 68% 29.96 in - WSW 13.8 mph 19.6 mph N/A   Unknown
5:54 AM 19.9 °F 5.7 °F 12.9 °F 74% 29.96 in - West 16.1 mph - N/A   Unknown
6:54 AM 19.9 °F 7.3 °F 14.0 °F 78% 29.97 in - WSW 12.7 mph - N/A   Unknown
7:54 AM 21.0 °F 7.6 °F 15.1 °F 78% 29.99 in - WSW 15.0 mph 19.6 mph N/A   Unknown
8:54 AM 25.0 °F 14.2 °F 17.1 °F 72% 29.99 in - West 11.5 mph 19.6 mph N/A   Unknown
9:54 AM 28.9 °F 19.2 °F 18.0 °F 64% 29.97 in - West 11.5 mph 21.9 mph N/A   Unknown
10:54 AM 33.1 °F 21.5 °F 18.0 °F 54% 29.94 in - West 19.6 mph 32.2 mph N/A   Unknown
11:54 AM 34.0 °F 23.0 °F 18.0 °F 52% 29.90 in - WSW 18.4 mph 27.6 mph N/A   Unknown
12:54 PM 34.0 °F 21.8 °F 18.0 °F 52% 29.85 in - WSW 23.0 mph 34.5 mph N/A   Unknown
1:54 PM 36.0 °F 25.6 °F 19.0 °F 50% 29.84 in - WSW 18.4 mph 26.5 mph N/A   Unknown
2:54 PM 35.1 °F 26.4 °F 19.9 °F 54% 29.84 in - WSW 12.7 mph 23.0 mph N/A   Unknown
3:54 PM 34.0 °F 24.6 °F 21.0 °F 59% 29.85 in - WSW 13.8 mph 25.3 mph N/A   Unknown
4:54 PM 33.1 °F 24.4 °F 21.0 °F 61% 29.85 in - WSW 11.5 mph - N/A   Unknown
5:54 PM 33.1 °F 24.4 °F 21.0 °F 61% 29.85 in - WSW 11.5 mph 19.6 mph N/A   Unknown
6:54 PM 33.1 °F 24.4 °F 19.9 °F 59% 29.87 in - SW 11.5 mph - N/A   Unknown
7:54 PM 30.9 °F 19.8 °F 19.9 °F 64% 29.86 in - WSW 16.1 mph 20.7 mph N/A   Unknown
8:54 PM 30.0 °F 20.5 °F 19.9 °F 66% 29.87 in - SW 11.5 mph - N/A   Unknown
9:54 PM 28.9 °F 19.8 °F 19.0 °F 67% 29.88 in - WSW 10.4 mph 18.4 mph N/A   Unknown
10:54 PM 28.9 °F 19.2 °F 19.0 °F 67% 29.88 in - WSW 11.5 mph - N/A   Unknown
11:54 PM 28.9 °F 18.2 °F 18.0 °F 64% 29.87 in - WSW 13.8 mph - N/A   Unknown